STARLINK-36857, 68518

Orbit data source: Space-Track

STARLINK-36857, 68518 is a payload satellite owned by SpaceX/Seattle (US) in LEO that was launched on Mon, 30 Mar 2026 UTC via an FALCON 9 launch vehicle from the Air Force Eastern Test Range (AFETR). Payload-class satellites include a variety of spacecraft equipped with specific instruments for various scientific and technological missions. These include communications satellites like Starlink; space stations such as the ISS; scientific satellites like the Hubble; Earth observation satellites from companies like Planet Labs, Umbra, and HawkEye 360; GPS; miniature CubeSats for education and research; and military/defense satellites.

Loading next visibility...
Identifier
68518, 2026-068L
Orbit
LEO
Country
Flag of USUS
Related business
Manufacturer
SpaceX/Seattle
Mission
Operational spacecraft
Bus & Motor
STARLINK V2MO, Unknown motor
Mass
575 kg wet, ~530 kg dry
Launch date (UTC)
2026-03-30 (3 months ago)
Launch vehicle
FALCON 9
Launch site
Air Force Eastern Test Range (AFETR)
Object type
Payload
Rocket body
Debris
Shape & HBR
Unknown shape, 2.5 m
Radar Cross Section
Large (>1 m²)

Expand to show TLE details & history
Last TLE update: 1 day ago

TLE from 1 day ago
0 STARLINK-36857
1 68518U 26068L   26170.84077575  .00021408  00000-0  64277-3 0  9993
2 68518  53.1586  12.7371 0000911  78.5403 281.5702 15.34407563 12610
Epoch: 2026-06-19T20:10Z
TLE epoch observation values (Epoch: 2026-06-19T20:10:43.024Z)
Latitude
-0.00003°
Longitude
161.99384°
Altitude
463.457 km
Speed
7.636 km/s
True Right ascension
00h 50m 56s
True Declination
0° 00' 00"
Sunlit
Object was in daylight at epoch
Visualization orbit readout
Latitude
Unknown
Longitude
Unknown
Altitude
Unknown
Speed
Unknown
Apparent Right ascension
Unknown
Apparent Declination
Unknown
Sunlit
N/A
Visualization observer readout
Local Sidereal Time
07:20:23
Azimuth
Unknown
Elevation
Unknown
Doppler factor
Unknown
Orbital elements
Apogee altitude
463.561 km
Perigee altitude
462.315 km
Semi-major axis
6,841.075 km
Eccentricity
0.00009
Inclination
53.1586°
RAAN
12.7371°
Arg. of periapsis
78.5403°
True anomaly
281.55997°
Mean anomaly
281.5702°
Eccentric anomaly
281.56509°
Mean motion
3.83581 °/min
Orbital period
93.85 mins
BSTAR
0.00064277
Loading maneuver chart data...
Computing Atmospheric mass density...
Loading historical data...
Loading historical data...
Loading historical data...
Loading historical data...
Loading historical data...
Loading historical data...
Loading historical data...

Documentation

Showing up to 5 results
|